Zi Yuan 3-03

operational
NORAD ID: 45939 Int'l Des: 2020-051 Owner: GCDX/ZZWYZ Country: CN
LEOCIRCULARRETROGRADESSO

About Zi Yuan 3-03

Description loading...

Live Position

Loading 3D Globe...

Upcoming Passes

Altitude History

Altitude vs Time

uPlot chart will show altitude changes over time

Two-Line Element Set

1 45939U 20051A 26062.62132891 .00007673 00000-0 34593-3 0 9996
2 45939 97.2945 133.7040 0005231 341.1247 18.9795 15.21288756311299
Epoch: Mar 3, 2026 • Age: 25 hours

Current Status

Altitude 508.6 km
Velocity 7.61 km/s
Sub-Earth Point 24.24°N, 139.61°E
Launch Date Jul 25, 2020
Age 5.6 years
Type other

Technical Details

Classification Payload
Mass 2400.00 kg
Dry Mass 2200.00 kg
Total Mass 2400.00 kg
Length 2.00 m
Diameter 2.00 m
Span 10.00 m
Shape Box + 2 Pan
Manufacturer CAST
Bus Type ZY
Phase Status In Orbit
Owner/State GCDX/ZZWYZ/CN

Large Constellations

Loading constellations...